Специальные цены   новые товары
+ Ответить в теме
Страница 21 из 21 ПерваяПервая ... 11 19 20 21
Показано с 801 по 808 из 808

Kontronik представил продолжение линейки регуляторов Jive

Тема раздела Электродвигатели, регуляторы, аккумуляторы, зарядники в категории Вертолеты; Сообщение от brush Лог говорит что "выбит " датчик , в 90% такое бывает от статики и не всегда пропадает ...

  1. #801

    Регистрация
    13.06.2011
    Адрес
    Москва
    Возраст
    50
    Сообщений
    2,589
    Записей в дневнике
    5
    Цитата Сообщение от brush Посмотреть сообщение
    Лог говорит что "выбит " датчик , в 90% такое бывает от статики и не всегда пропадает питание на борту , бывает просто "тушит" мотор


    З.Ы. Множественная активация Циклического Кольца в полёте , говорит о не совсем правильных настройках ФБЛ , или механики .
    Максим, все это было уже после того, как мотор погас в 09:51:40 - видно по логу telme ниже (по факту его видимо сохраняет логбук аналогично тому, как с датчиком тока). Циклик ринг - вытаскивал верт в горизонт на затухающем роторе. "Выбит датчик" - это уже удар об землю. Motorswitch Motor Off - ну это уже на земле холд дернул , хотя толку уже 0, двигатель остановлен был.

    Вот лог:
    Date;I(A);U(V);(Q)mAh;Headspeed(rpm);PWM(%)
    09:49:55;0.0;50.1;0.0;0;0
    09:49:55;0.0;50.1;0.0;0;1
    09:49:56;0.0;50.1;0.0;16;2
    09:49:56;0.0;50.1;0.0;55;3
    09:49:57;0.0;50.1;0.0;79;3
    09:49:57;0.0;50.1;0.0;100;4
    09:49:58;0.0;50.1;0.0;173;8
    09:49:58;0.0;50.0;0.0;200;10
    09:49:59;0.0;50.0;0.0;283;12
    09:49:59;0.0;50.0;0.0;354;14
    09:50:00;1.0;50.0;0.0;405;16
    09:50:00;1.0;50.0;0.0;437;17
    09:50:01;1.0;50.0;0.0;490;19
    09:50:01;3.0;49.8;1.0;578;24
    09:50:02;4.0;49.8;1.0;678;28
    09:50:02;6.0;49.7;2.0;795;33
    09:50:03;6.0;49.6;3.0;840;37
    09:50:03;9.0;49.5;4.0;989;41
    09:50:04;9.0;49.4;6.0;1089;45
    09:50:04;12.0;49.2;8.0;1183;50
    09:50:05;13.0;49.1;9.0;1287;54
    09:50:05;12.0;49.1;11.0;1339;56
    09:50:06;15.0;48.9;14.0;1433;63
    09:50:06;18.0;48.6;17.0;1522;67
    09:50:07;16.0;48.8;19.0;1631;68
    09:50:07;17.0;48.7;21.0;1646;69
    09:50:08;18.0;48.6;24.0;1641;70
    09:50:08;12.0;48.8;27.0;1675;69
    09:50:09;13.0;48.9;27.0;1673;69
    09:50:09;14.0;48.8;30.0;1673;70
    09:50:10;13.0;48.8;32.0;1673;70
    09:50:10;12.0;48.8;34.0;1675;70
    09:50:11;20.0;48.4;36.0;1689;73
    09:50:11;26.0;48.2;39.0;1767;79
    09:50:12;31.0;48.1;41.0;1860;83
    09:50:12;14.0;48.6;45.0;1917;80
    09:50:13;27.0;48.0;49.0;1890;83
    09:50:13;12.0;48.6;51.0;1931;79
    09:50:14;22.0;48.1;55.0;1890;83
    09:50:14;28.0;47.7;60.0;1890;83
    09:50:15;9.0;48.5;62.0;1931;78
    09:50:15;17.0;48.3;63.0;1904;81
    09:50:16;14.0;48.5;66.0;1912;80
    09:50:16;19.0;48.4;68.0;1908;81
    09:50:17;41.0;46.6;74.0;1869;88
    09:50:17;19.0;47.9;79.0;1898;82
    09:50:18;97.0;44.2;83.0;1898;100
    09:50:18;43.0;46.3;89.0;1851;89
    09:50:19;15.0;48.0;92.0;1907;81
    09:50:19;48.0;46.5;97.0;1852;90
    09:50:20;21.0;47.6;102.0;1898;83
    09:50:20;14.0;48.0;105.0;1906;81
    09:50:21;20.0;47.8;108.0;1896;83
    09:50:21;22.0;47.5;111.0;1891;83
    09:50:22;35.0;46.9;115.0;1869;87
    09:50:22;50.0;46.1;124.0;1822;90
    09:50:23;22.0;47.3;128.0;1882;84
    09:50:23;23.0;47.4;132.0;1892;84
    09:50:24;13.0;47.9;133.0;1917;81
    09:50:24;21.0;47.5;136.0;1896;83
    09:50:25;39.0;46.7;140.0;1862;88
    09:50:25;18.0;47.3;147.0;1840;82
    09:50:26;20.0;47.6;150.0;1892;83
    09:50:26;24.0;47.3;153.0;1890;84
    09:50:27;15.0;47.8;157.0;1911;81
    09:50:27;35.0;46.8;159.0;1869;87
    09:50:28;29.0;46.9;166.0;1883;85
    09:50:28;22.0;47.2;168.0;1892;84
    09:50:29;37.0;46.5;174.0;1867;88
    09:50:29;21.0;47.1;179.0;1892;84
    09:50:30;45.0;45.8;183.0;1898;90
    09:50:30;50.0;45.5;191.0;1834;92
    09:50:31;20.0;47.1;195.0;1898;83
    09:50:31;12.0;47.5;197.0;1913;80
    09:50:32;17.0;47.5;200.0;1923;82
    09:50:32;19.0;47.5;201.0;1900;83
    09:50:33;60.0;45.4;207.0;1888;94
    09:50:33;73.0;44.5;217.0;1810;97
    09:50:34;24.0;46.3;227.0;1886;86
    09:50:34;38.0;45.7;237.0;1886;89
    09:50:35;52.0;45.3;240.0;1849;93
    09:50:35;89.0;43.7;250.0;1796;100
    09:50:36;47.0;45.4;259.0;1861;91
    09:50:36;29.0;45.9;266.0;1890;87
    09:50:37;37.0;45.8;273.0;1866;89
    09:50:37;54.0;44.8;280.0;1843;93
    09:50:38;17.0;46.7;285.0;1906;84
    09:50:38;13.0;47.1;287.0;1916;82
    09:50:39;97.0;43.8;294.0;1767;100
    09:50:39;91.0;43.4;304.0;1898;100
    09:50:40;87.0;43.2;311.0;1796;100
    09:50:40;80.0;43.8;319.0;1976;99
    09:50:41;23.0;46.3;326.0;1881;86
    09:50:41;23.0;46.4;329.0;1890;86
    09:50:42;77.0;44.2;335.0;1888;97
    09:50:42;17.0;46.6;340.0;1871;84
    09:50:43;40.0;45.6;344.0;1864;90
    09:50:44;22.0;46.5;346.0;1896;85
    09:50:44;45.0;45.3;353.0;1861;91
    09:50:44;39.0;45.6;356.0;1863;90
    09:50:45;22.0;46.3;361.0;1891;86
    09:50:45;25.0;46.4;366.0;1904;86
    09:50:46;42.0;45.7;371.0;1860;90
    09:50:46;31.0;46.1;377.0;1860;88
    09:50:47;32.0;46.0;380.0;1915;88
    09:50:48;45.0;45.2;386.0;1855;91
    09:50:48;54.0;45.2;389.0;1845;93
    09:50:48;29.0;46.2;393.0;1882;87
    09:50:49;52.0;45.2;400.0;1848;93
    09:50:49;39.0;45.8;405.0;1883;90
    09:50:50;40.0;45.4;411.0;1857;90
    09:50:50;19.0;46.5;415.0;1902;84
    09:50:51;33.0;45.8;422.0;1839;89
    09:50:51;17.0;46.5;426.0;1895;83
    09:50:52;15.0;46.8;428.0;1913;83
    09:50:53;15.0;46.8;430.0;1916;82
    09:50:53;15.0;46.8;433.0;1913;83
    09:50:53;16.0;46.8;436.0;1903;84
    09:50:54;18.0;46.9;438.0;1903;83
    09:50:54;16.0;46.8;441.0;1905;83
    09:50:55;40.0;45.8;444.0;1862;89
    09:50:56;39.0;45.9;449.0;1862;89
    09:50:56;18.0;46.6;452.0;1905;84
    09:50:56;17.0;46.9;454.0;1906;83
    09:50:57;16.0;46.8;457.0;1906;83
    09:50:57;20.0;46.6;460.0;1899;85
    09:50:58;23.0;46.5;465.0;1885;86
    09:50:58;20.0;46.6;466.0;1885;84
    09:50:59;48.0;45.6;471.0;1848;92
    09:51:00;29.0;46.2;478.0;1890;87
    09:51:00;20.0;46.6;481.0;1911;84
    09:51:01;29.0;46.2;483.0;1882;87
    09:51:01;33.0;46.0;493.0;1874;88
    09:51:02;12.0;46.9;495.0;1908;82
    09:51:02;22.0;46.5;498.0;1904;85
    09:51:02;41.0;45.9;501.0;1860;90
    09:51:03;28.0;45.9;508.0;1886;87
    09:51:04;50.0;45.3;514.0;1860;91
    09:51:04;37.0;45.6;519.0;1870;89
    09:51:05;40.0;45.7;525.0;1865;90
    09:51:05;37.0;45.6;531.0;1866;89
    09:51:05;49.0;44.8;538.0;1856;93
    09:51:06;49.0;44.8;538.0;1856;93
    09:51:07;19.0;46.3;548.0;1903;85
    09:51:07;12.0;46.6;550.0;1921;82
    09:51:08;18.0;46.4;552.0;1907;84
    09:51:08;20.0;46.3;553.0;1901;85
    09:51:09;30.0;46.0;559.0;1881;88
    09:51:09;37.0;45.7;564.0;1867;89
    09:51:10;17.0;46.4;569.0;1879;84
    09:51:10;31.0;46.0;572.0;1878;88
    09:51:11;57.0;44.7;581.0;1816;94
    09:51:11;16.0;46.3;585.0;1902;84
    09:51:12;16.0;46.3;586.0;1912;84
    09:51:12;25.0;46.1;591.0;1887;86
    09:51:13;18.0;46.2;594.0;1908;84
    09:51:13;19.0;46.3;597.0;1906;85
    09:51:14;19.0;46.3;599.0;1909;84
    09:51:14;21.0;46.3;602.0;1900;85
    09:51:15;20.0;46.2;606.0;1903;85
    09:51:15;20.0;46.3;609.0;1903;85
    09:51:16;17.0;46.5;612.0;1907;84
    09:51:16;25.0;46.1;615.0;1887;86
    09:51:17;37.0;45.8;617.0;1869;89
    09:51:17;38.0;45.5;622.0;1853;91
    09:51:18;29.0;46.0;628.0;1885;87
    09:51:18;39.0;45.4;635.0;1869;90
    09:51:19;60.0;44.4;642.0;1866;95
    09:51:19;2.0;46.7;648.0;1975;78
    09:51:20;17.0;46.1;650.0;1910;84
    09:51:20;16.0;46.3;651.0;1912;84
    09:51:21;18.0;46.3;654.0;1908;84
    09:51:21;31.0;45.8;656.0;1877;88
    09:51:22;43.0;45.1;664.0;1861;91
    09:51:22;58.0;44.6;670.0;1842;95
    09:51:23;30.0;45.4;680.0;1847;88
    09:51:23;19.0;45.9;683.0;1905;85
    09:51:24;15.0;46.1;686.0;1914;84
    09:51:24;15.0;46.2;687.0;1908;85
    09:51:25;25.0;45.7;691.0;1892;87
    09:51:25;21.0;45.9;694.0;1898;86
    09:51:26;30.0;45.6;698.0;1882;88
    09:51:26;52.0;44.7;705.0;1852;93
    09:51:27;23.0;45.7;711.0;1892;87
    09:51:27;24.0;45.7;714.0;1899;87
    09:51:28;17.0;46.1;717.0;1909;85
    09:51:28;25.0;45.8;720.0;1893;87
    09:51:29;24.0;45.7;723.0;1893;86
    09:51:29;29.0;45.7;728.0;1890;88
    09:51:30;55.0;44.4;733.0;1847;94
    09:51:30;20.0;45.8;739.0;1882;86
    09:51:31;47.0;44.8;744.0;1873;92
    09:51:31;42.0;44.8;748.0;1863;91
    09:51:32;44.0;45.0;754.0;1906;92
    09:51:32;49.0;44.8;759.0;1861;92
    09:51:33;49.0;44.8;759.0;1861;92
    09:51:33;40.0;44.8;774.0;1852;91
    09:51:34;23.0;45.7;775.0;1977;86
    09:51:34;26.0;45.3;778.0;1889;88
    09:51:35;18.0;45.8;782.0;1899;85
    09:51:35;16.0;45.9;785.0;1915;85
    09:51:36;18.0;45.8;786.0;1911;85
    09:51:36;40.0;45.0;792.0;1852;92
    09:51:37;41.0;44.9;796.0;1866;91
    09:51:37;25.0;45.4;800.0;1892;87
    09:51:38;90.0;42.8;809.0;1855;100
    09:51:38;82.0;43.0;820.0;1833;100
    09:51:39;84.0;42.8;834.0;1782;100
    09:51:39;92.0;42.7;845.0;1786;100
    09:51:40;96.0;45.9;851.0;0;0
    09:51:40;96.0;46.1;851.0;0;0
    09:51:41;96.0;46.4;851.0;0;0
    09:51:41;96.0;46.3;851.0;0;0
    09:51:42;96.0;46.5;851.0;0;0
    09:51:42;96.0;46.5;851.0;0;0
    09:51:43;96.0;46.6;851.0;0;0
    09:51:43;96.0;46.6;851.0;0;0
    09:51:44;96.0;46.7;851.0;0;0
    09:51:44;96.0;46.8;851.0;0;0
    09:51:45;96.0;46.8;851.0;0;0
    С заземлением все хорошо было. Сзади в балку саморез ввернут, спереди просверлил отверстие, зачистил, вставил болтик с шайбами и гайкой и вс это затянул. А уже к нему еще одной гайкой клемму прикрутил. Потом провод на мотораму и "-" фбл. Все звонилось отлично.

    Балку загнул, всю конструкцию уже разобрал. Купил карбоновую трубку 25 мм со стенкой 1 мм. Попробую ее поставить. Заземление сделаю аналогично. Только сзади наверно тоже вместо самореза болтик.

  2.  
  3. #802

    Регистрация
    10.06.2013
    Адрес
    Москва
    Возраст
    58
    Сообщений
    2,831
    Цитата Сообщение от rolic Посмотреть сообщение
    Купил карбоновую трубку 25 мм со стенкой 1 мм. Попробую ее поставить.
    Если после этого появится дикая вибрация, в первую очередь надо будет заменить балку на металл. Чтобы долго не искать барабашку. Иногда карбоновая балка резонирует.

  4. #803

    Регистрация
    13.06.2011
    Адрес
    Москва
    Возраст
    50
    Сообщений
    2,589
    Записей в дневнике
    5
    Спасибо. Дома обязательно покручу с хвостовыми лопастями, проверю.

  5. #804

    Регистрация
    29.06.2011
    Адрес
    Минск , беларусь
    Возраст
    38
    Сообщений
    3,532
    Записей в дневнике
    8
    Да , лог с Телми дает более полное представление , смутила запись выключения мотора , после записи состояния датчика .
    Алексей , после таиминг 18, поставьте Р-рart. 8-9.

    Если отключение повторится , снижайте Ri- comp.
    З.ы.Но думаю тайминг 18. и P- part 8 уберет проблему полностью .

  6.  
  7. #805

    Регистрация
    13.06.2011
    Адрес
    Москва
    Возраст
    50
    Сообщений
    2,589
    Записей в дневнике
    5
    Спасибо, Максим. Буду пробовать, как получу запчасти и соберу вертолет.

    Интересно, что telme после отсечки продолжает выдавать данные по току, который был на ее момент. А напряжение меняется. Ну может это так и задумано было.

    В предыдущую отсечку тоже обратил на это внимание.

  8. #806

    Регистрация
    29.06.2011
    Адрес
    Минск , беларусь
    Возраст
    38
    Сообщений
    3,532
    Записей в дневнике
    8
    Уже давно летаю с карбон балкой , удобно что при малейшем чихе , не надо её менять , ну и тянуть ремень не надо два раза в год .))

    Есть ещё один один плюс , ломается она у основания, и её как раз хватает на 600-й размер вертолета . Т.е. можно просто купить ремень HTD M3 1860, поставить 600-650мм лопасти и если позволяют обороты летать дальше ..))

  9. #807

    Регистрация
    29.06.2011
    Адрес
    Минск , беларусь
    Возраст
    38
    Сообщений
    3,532
    Записей в дневнике
    8
    ..И да , Алексей ,я совсем забыл написать .

    Тайминг влияет на обороты .
    Было проверенно опытным путём , ротор терял 100об. при фиксированном тайминг 18 .
    На 80 % газа были 1950 RPM , при АВТО 2050 RPM!

    Схема такая; в режиме Gov Store , в настройках регулятора , ставим AUTO timing, раскручиваем ротор в 0-шага , Контроник "возмёт" обороты .
    Потом конфигурируем FIX timing !
    Обороты будут выше .

  10.  
  11. #808

    Регистрация
    13.06.2011
    Адрес
    Москва
    Возраст
    50
    Сообщений
    2,589
    Записей в дневнике
    5
    О! Это отличный совет. А то я регуль обучал на фиксированном тайминге 12 и получил обороты 1900 на 80%.

+ Ответить в теме

Похожие темы

  1. HobbyWing выпускает новые регуляторы с гувернёром как у Kontronik
    от def.lord в разделе Электродвигатели, регуляторы, аккумуляторы, зарядники
    Ответов: 2392
    Последнее сообщение: Вчера, 20:26
  2. Продам Мотор Kontronik fun500-19
    от nontype в разделе Барахолка. Электродвигатели, регуляторы хода, аксессуары
    Ответов: 12
    Последнее сообщение: 06.04.2014, 13:31
  3. Куплю ESC Kontronik Jive 100 LV
    от Alex71 в разделе Барахолка. Вертолеты
    Ответов: 5
    Последнее сообщение: 18.02.2014, 00:50
  4. Продам Карты программирования kontronik progcard
    от Mr.Gabb в разделе Барахолка. Электродвигатели, регуляторы хода, аксессуары
    Ответов: 12
    Последнее сообщение: 12.02.2014, 17:39
  5. Куплю Kontronik Jive 80HV
    от def.lord в разделе Барахолка. Электродвигатели, регуляторы хода, аксессуары
    Ответов: 0
    Последнее сообщение: 10.01.2014, 13:35

Метки этой темы

Ваши права

  • Вы не можете создавать новые темы
  • Вы не можете отвечать в темах
  • Вы не можете прикреплять вложения
  • Вы не можете редактировать свои сообщения